Rexburg, ID

6:23 PM MDT on October 20, 2017 (GMT -0600)
Rexburg-Madison County

Weather History for KRXE - September, 2011

Change the Weather History Date:

Tuesday, September 13, 2011

  Actual Average Record
Temperature  
Mean Temperature 62 °F 57 °F  
Max Temperature 77 °F 73 °F 85 °F (2006)
Min Temperature 46 °F 41 °F 30 °F (2003)
Degree Days  
Heating Degree Days 3 9  
Month to date heating degree days 35 83  
Since 1 July heating degree days 57 156  
Cooling Degree Days 0 0  
Month to date cooling degree days 0 5  
Year to date cooling degree days 222 207  
Growing Degree Days 4 (Base 50)    
Moisture  
Dew Point 45 °F    
Average Humidity 59    
Maximum Humidity 86    
Minimum Humidity 31    
Precipitation  
Precipitation 0.00 in 0.03 in 1.06 in (1985)
Month to date precipitation 0.01 0.38  
Year to date precipitation 10.09 9.30  
Sea Level Pressure  
Sea Level Pressure 30.13 in    
Wind  
Wind Speed 4 mph (East)    
Max Wind Speed 10 mph    
Max Gust Speed 14 mph    
Visibility 10 miles    
Events      
T = Trace of Precipitation, MM = Missing Value Source: NWS Daily Summary

Daily Weather History Graph

Daily Weather History Graph

Search for Another Location

Airport or City:

Trip Planner

Search our weather history database for the weather conditions in past years. The results will help you decide how hot, cold, wet, or windy it might be!

Date:

Astronomy

Sep. 13, 2011 Rise Set
Actual Time 7:04 AM MDT 7:41 PM MDT
Civil Twilight 6:35 AM MDT 8:10 PM MDT
Nautical Twilight 6:00 AM MDT 8:44 PM MDT
Astronomical Twilight 5:25 AM MDT 9:20 PM MDT
Moon 7:53 PM MDT (9/13) 8:26 AM MDT (9/13)
Length of Visible Light 13h 35m
Length of Day
12h 37m
Full, 98% of the Moon is Illuminated
Sep 13
Full
Sep 20
Last Quarter
Sep 27
New
Oct 3
First Quarter
Oct 11
Full

Hourly Weather History & Observations

Time (MDT) Temp. Dew Point Humidity Pressure Visibility Wind Dir Wind Speed Gust Speed Precip Events Conditions
12:00 AM - - N/A% - - North - - N/A   Unknown
12:53 AM 57.9 °F 48.9 °F 72% 30.15 in 10.0 mi NE 6.9 mph - N/A   Partly Cloudy
1:53 AM 55.9 °F 50.0 °F 80% 30.15 in 10.0 mi NE 6.9 mph - N/A   Clear
2:53 AM 55.0 °F 50.0 °F 83% 30.15 in 10.0 mi ENE 3.5 mph - N/A   Clear
3:00 AM - - N/A% - - North - - N/A   Unknown
3:53 AM 53.1 °F 48.9 °F 86% 30.16 in 10.0 mi ENE 4.6 mph - N/A   Clear
4:53 AM 50.0 °F 46.9 °F 89% 30.17 in 10.0 mi NE 4.6 mph - N/A   Partly Cloudy
5:53 AM 48.9 °F 45.0 °F 86% 30.18 in 10.0 mi ENE 4.6 mph - N/A   Clear
6:00 AM 32.0 °F 32.0 °F 100% - - North - - N/A   Unknown
6:53 AM 46.9 °F 43.0 °F 86% 30.20 in 10.0 mi NE 3.5 mph - N/A   Clear
7:53 AM 46.9 °F 43.0 °F 86% 30.21 in 10.0 mi NE 4.6 mph - N/A   Clear
8:53 AM 51.1 °F 45.0 °F 80% 30.23 in 10.0 mi Calm Calm - N/A   Mostly Cloudy
9:53 AM 57.0 °F 46.9 °F 69% 30.22 in 10.0 mi NE 3.5 mph - N/A   Clear
10:53 AM 62.1 °F 46.9 °F 58% 30.19 in 10.0 mi Calm Calm - N/A   Clear
12:53 PM 70.0 °F 45.0 °F 41% 30.15 in 10.0 mi WSW 4.6 mph - N/A   Clear
2:53 PM 73.9 °F 45.0 °F 35% 30.11 in 10.0 mi Variable 6.9 mph - N/A   Clear
3:53 PM 75.0 °F 44.1 °F 33% 30.08 in 10.0 mi SSW 6.9 mph - N/A   Clear
4:53 PM 75.9 °F 44.1 °F 32% 30.05 in 10.0 mi SW 5.8 mph - N/A   Clear
6:53 PM 73.9 °F 44.1 °F 34% 30.04 in 10.0 mi SSW 4.6 mph - N/A   Clear
7:53 PM 68.0 °F 46.0 °F 45% 30.05 in 10.0 mi South 4.6 mph - N/A   Clear
8:53 PM 64.9 °F 44.1 °F 47% 30.06 in 10.0 mi South 4.6 mph - N/A   Clear
9:53 PM 63.0 °F 43.0 °F 48% 30.05 in 10.0 mi South 4.6 mph - N/A   Clear
10:53 PM 57.9 °F 43.0 °F 58% 30.05 in 10.0 mi West 3.5 mph - N/A   Clear
11:53 PM 53.1 °F 45.0 °F 74% 30.06 in 10.0 mi NE 3.5 mph - N/A   Clear